Location: Meadowbank Aerodrome
(65.0250°N, 96.0705°W)
Time: 06:09:14
(UTC-05:00)

Cosmos 2221 - Visible Passes

Search period start: 06 May 2016 00:00
Search period end: 16 May 2016 00:00
Orbit: 595 x 617 km, 82.5° (Epoch: 05 May)

Date Brightness Start Highest point End Pass type
(mag) Time Alt. Az. Time Alt. Az. Time Alt. Az.
06 May 4.6 01:12:51 10° N 01:16:37 26° NE 01:20:21 10° ESE visible
06 May 2.6 02:50:22 10° NNW 02:54:49 89° WSW 02:59:13 10° SSE visible
06 May 5.3 23:48:55 10° N 23:51:08 13° NNE 23:53:20 10° ENE visible
07 May 4.2 01:26:05 10° N 01:30:07 33° NE 01:34:07 10° ESE visible
08 May 5.2 00:02:03 10° N 00:04:48 16° NE 00:07:30 10° ENE visible
08 May 3.7 01:39:21 10° NNW 01:43:34 42° ENE 01:47:46 10° SE visible
09 May 5.0 00:15:14 10° N 00:18:25 19° NE 00:21:34 10° E visible
09 May 3.2 01:52:36 10° NNW 01:56:59 56° ENE 02:01:18 10° SE visible
10 May 4.7 00:28:26 10° N 00:31:59 23° NE 00:35:30 10° E visible
10 May 2.8 02:05:53 10° NNW 02:10:19 76° ENE 02:14:44 10° SSE visible
11 May 4.3 00:41:40 10° N 00:45:31 28° NE 00:49:21 10° ESE visible
11 May 2.6 02:19:12 10° NNW 02:23:39 81° WSW 02:28:01 10° S visible
12 May 3.9 00:54:54 10° N 00:59:00 36° ENE 01:03:04 10° SE visible
13 May 3.5 01:08:09 10° NNW 01:12:26 46° ENE 01:16:40 10° SE visible
14 May 3.0 01:21:25 10° NNW 01:25:49 62° ENE 01:30:09 10° SSE visible
